Location: Be Tobo
(6.6442°N, 10.6239°W)
Time: 03:55:41
(UTC+00:00)

SMAP - Pass Details

Date: 18 September 2020
Orbit: 681 x 683 km, 98.1° (Epoch: 23 October)

Event Time Altitude Azimuth Distance (km) Brightness Sun altitude
Rises 18:51:38 0° 179° (S) 3,037 6.4 -3.6°
Reaches altitude 10° 18:53:56 10° 185° (S) 2,122 5.7 -4.2°
Maximum altitude 18:58:23 47° 259° (WSW) 905 4.4 -5.3°
Drops below altitude 10° 19:02:50 10° 332° (NNW) 2,118 6.0 -6.4°
Sets 19:05:08 0° 338° (NNW) 3,031 6.7 -7.0°
